This is the latest recevied weather packets stored in our database for station/object DO7CRZ-12. If no packets are shown the sender has not sent any weather packets the latest 10 day(s).
| Time | Temp. | Humidity | Pressure | Rain* | Wind** | Luminosity | Snow |
|---|---|---|---|---|---|---|---|
| 1777445242 | 6.11° C | 45% | 1027.6 hPa | 0 mm | - | 21 W/m² | - |
| 1777444639 | 6.11° C | 48% | 1027.4 hPa | 0 mm | - | 20 W/m² | - |
| 1777444036 | 5.56° C | 51% | 1027.4 hPa | 0 mm | - | 19 W/m² | - |
| 1777443449 | 5.56° C | 53% | 1027.3 hPa | 0 mm | - | 19 W/m² | - |
| 1777442846 | 5° C | 54% | 1027.2 hPa | 0 mm | - | 18 W/m² | - |
| 1777442242 | 4.44° C | 57% | 1027.1 hPa | 0 mm | - | 17 W/m² | - |
| 1777441639 | 4.44° C | 58% | 1027 hPa | 0 mm | - | 17 W/m² | - |
| 1777441037 | 3.89° C | 58% | 1026.9 hPa | 0 mm | - | 16 W/m² | - |
| 1777440449 | 3.89° C | 58% | 1026.8 hPa | 0 mm | - | 13 W/m² | - |
| 1777439846 | 3.89° C | 60% | 1026.8 hPa | 0 mm | - | 14 W/m² | - |
| 1777439243 | 3.33° C | 60% | 1026.6 hPa | 0 mm | - | 13 W/m² | - |
| 1777438640 | 3.33° C | 60% | 1026.6 hPa | 0 mm | - | 12 W/m² | - |
| 1777438037 | 2.78° C | 60% | 1026.5 hPa | 0 mm | - | 11 W/m² | - |
| 1777437450 | 2.78° C | 59% | 1026.4 hPa | 0 mm | - | 9 W/m² | - |
| 1777436847 | 3.33° C | 59% | 1026.6 hPa | 0 mm | - | 8 W/m² | - |
| 1777436244 | 3.33° C | 59% | 1026.4 hPa | 0 mm | - | 6 W/m² | - |
| 1777435038 | 3.33° C | 58% | 1026.1 hPa | 0 mm | - | 3 W/m² | - |
| 1777434435 | 3.33° C | 58% | 1026.1 hPa | 0 mm | - | 1 W/m² | - |
| 1777433848 | 3.33° C | 57% | 1025.9 hPa | 0 mm | - | 0 W/m² | - |
| 1777433245 | 3.33° C | 57% | 1026 hPa | 0 mm | - | 0 W/m² | - |
| 1777432642 | 3.89° C | 56% | 1025.8 hPa | 0 mm | - | 0 W/m² | - |
| 1777431437 | 3.89° C | 55% | 1025.7 hPa | 0 mm | - | 0 W/m² | - |
| 1777430849 | 3.89° C | 54% | 1025.6 hPa | 0 mm | - | 0 W/m² | - |
| 1777430246 | 3.89° C | 53% | 1025.7 hPa | 0 mm | - | 0 W/m² | - |
| 1777429040 | 4.44° C | 52% | 1025.7 hPa | 0 mm | - | 0 W/m² | - |
* Rain latest hour (hover to see other rain measurements)
** Current wind speed in m/s (hover to see current wind gust speed)